Regional Weather Roundup
Issued by NWS

Home | Current Version | Previous Version | Text Only | Print | Product List | Glossary Off
Versions: 1 2 3 4 5 6 7 8 9 10 11 12 13 14 15 16 17 18 19 20 21 22 23 24 25 26 27 28 29 30 31 32 33 34 35 36 37 38 39 40 41 42 43 44 45 46 47 48 49 50

000
ASUS45 KSLC 250510
RWRUT

UTAH REGIONAL WEATHER ROUNDUP
NATIONAL WEATHER SERVICE SALT LAKE CITY UT
1100 PM MDT THU JUL 24 2014

UTZ001>011-023>025-250600-

NORTHERN UTAH

CITY           SKY/WX    TMP DP  RH WIND       PRES   REMARKS
HILL AFB       CLEAR     78  38  23 E9        30.00F
LOGAN          CLEAR     65  38  36 N9        30.04R
OGDEN          CLEAR     73  45  36 NW9       29.98R
PROVO AIRPORT  CLEAR     75  50  41 SE6       30.00S
SALT LAKE CITY MOCLDY    74  59  59 W8        29.95S
VERNAL         TSTM      76  48  37 E13G30    30.09R
WENDOVER       CLEAR     79  37  22 N23G30    30.00R
HEBER CITY     CLEAR     63  43  48 S6        30.08R
WEST JORDAN    CLEAR     79  43  27 N3        30.00R

$$

UTZ012>022-026-027-250600-

SOUTHERN UTAH

CITY           SKY/WX    TMP DP  RH WIND       PRES   REMARKS
BRYCE CANYON   MOCLDY    70  47  43 SW15      30.31R
CEDAR CITY     PTCLDY    80  46  30 SW16      30.12R
MILFORD        CLEAR     82  41  23 S12       30.02R
MOAB/CYNLANDS  CLEAR     85  49  28 SE24      30.00R
PRICE          CLEAR     79  43  27 E7        30.12R
ST GEORGE      CLEAR     93  52  24 SE24G31   29.90R HX  90
KANAB            N/A     79  48  34 S3        30.14

$$

REGIONAL REPORTS     COLORADO/ARIZONA

CITY           SKY/WX    TMP DP  RH WIND       PRES   REMARKS
CRAIG, CO      PTCLDY    62  50  64 S8        30.19R
GRAND JUNCTION PTCLDY    78  51  38 SE15      30.09R
RIFLE          MOCLDY    74  50  42 E12       30.18R
MONTROSE       CLOUDY    75  51  43 SE15      30.24R
CORTEZ         MOCLDY    72  55  55 NE9       30.27R
PAGE, AZ       PTCLDY    88  49  25 S9        30.03S
GRAND CANYON   CLOUDY    64  58  80 NE3       30.29S
KINGMAN        MOCLDY    87  48  25 SE13      29.98R
FLAGSTAFF      PTCLDY    60  53  77 CALM      30.33S

$$

REGIONAL REPORTS    NEVADA/IDAHO/WYOMING

CITY           SKY/WX    TMP DP  RH WIND       PRES   REMARKS
LAS VEGAS, NV  PTCLDY   101  31   8 S9        29.77R HX  94
ELY            CLEAR     69  21  16 S12       30.12R
ELKO           CLEAR     71  29  21 NE6       30.06R
POCATELLO, ID  CLEAR     65  33  30 SW14G22   30.10R
BURLEY         CLEAR     58  34  40 W8        30.09R
EVANSTON, WY   PTCLDY    67  34  29 NE6       30.22R
ROCK SPRINGS   CLEAR     73  28  18 CALM      30.19R

$$


USA.gov is the U.S. government's official web portal to all federal, state and local government web resources and services.